Showing default

CARTOSAT 2D, 41948

Orbit data source: Space-Track

CARTOSAT 2D, 41948 is a payload satellite owned by ISRO (IN) in SSO that was launched on Wed, 15 Feb 2017 UTC via a PSLV-XL launch vehicle from the Sirharikota (SRI). Payloads include a variety of satellites, spacecraft, and rockets equipped with specific instruments for various scientific and technological missions. These include communications satellites like Starlink; space stations such as the ISS; scientific satellites like the Hubble; Earth observation satellites from companies like Planet Labs, Umbra, and HawkEye 360; GPS; miniature CubeSats for education and research; and military/defense satellites.

Loading next visibility...
CARTOSAT 2D details
Identifier
41948, 2017-008A
Orbit
SSO
Last TLE update21 hours ago
Origin
Flag of INISRO (IN / IND)
ManufacturerISRO
MissionOperational Civil Imaging
Bus & MotorIRS-2, AOCS
Mass714 kg wet, 639 kg dry
Launch date (UTC)
2017-02-15 (8 years ago)
Launch vehicle
PSLV-XL
Launch site
Sirharikota (SRI)
Object type
Payload
Rocket body
Debris
Shape & HBRHex Cyl + 2 Pan, 8 m
Radar Cross Section9.780 m², Large (>1 m²)

Expand to show TLE details & history

TLE from 21 hours ago
0 CARTOSAT 2D
1 41948U 17008A   24360.58784204  .00011150  00000-0  53318-3 0  9996
2 41948  97.4425  56.3895 0004809 329.4226  30.6728 15.19153741435807
Epoch: 2024-12-25T14:06Z
Definitive object data (Epoch: 2024-12-25T14:06:29.552Z)
Latitude0.00003°
Longitude110.18692°
Altitude508.636 km
Speed7.611 km/s
True Right ascension03h 45m 33s
True Declination0° 00' 00"
Sunlit
Object was in full shadow at TLE epoch
Visualization TLE readout
Latitude45.64388°
Longitude-61.31011°
Altitude518.599 km
Speed7.607 km/s
Apparent Right ascension19h 29m 36s
Apparent Declination7° 12' 17"
Sunlit
Object is in daylight
Visualization observer readout
Local Sidereal Time10:36:07
Azimuth53.515° ENE
Elevation-26.236°
Doppler factor1
Orbital elements
Apogee altitude508.676 km
Perigee altitude502.055 km
Semi-major axis6,883.502 km
Eccentricity0.0004809
Inclination97.4425°
RAAN56.3895°
Arg. of periapsis329.4226°
True anomaly30.70093°
Mean anomaly30.6728°
Eccentric anomaly30.68686°
Mean motion3.8004 °/min
BSTAR0.00053318
Orbital period94.73 mins
Loading maneuver chart data...

CARTOSAT 2D Visibility forecast

Observer location: undefined°, undefined

Span
Click to sort rows by Start time (UTC) header in descending order
Start Az.
Max El. time (UTC)
Max El. Az.
Max El.
End time (UTC)
End Az.
5 mins2024-12-26 15:58:48.097Z50.303° ENE2024-12-26 16:00:48.097Z84.633° E17.945°2024-12-26 16:03:48.097Z139.958° SSE
4 mins2024-12-26 17:33:48.097Z321.937° NNW2024-12-26 17:34:48.097Z298.076° NW22.834°2024-12-26 17:37:48.097Z236.864° WSW
6 mins2024-12-27 04:10:48.097Z180.398° SSW2024-12-27 04:13:48.097Z300.106° NW40.085°2024-12-27 04:16:48.097Z341.2° N
|